Location: Grasslands National Park East Block
(49.0708°N, 106.5295°W)
Time: 00:14:03
(UTC-06:00)

Courier 1B Rocket - All Passes

Search period start: 22 September 2019 00:00
Search period end: 02 October 2019 00:00
Orbit: 920 x 1202 km, 28.2° (Epoch: 20 September)

Date Brightness Start Highest point End Pass type
(mag) Time Alt. Az. Time Alt. Az. Time Alt. Az.
22 Sep - 15:49:45 10° S 15:51:39 11° SSE 15:53:33 10° SSE daylight
22 Sep - 17:40:46 10° SSW 17:43:46 13° S 17:46:41 10° SSE daylight
23 Sep - 16:39:47 10° SSW 16:43:04 13° S 16:46:17 10° SSE daylight
23 Sep - 18:33:52 10° SSW 18:35:08 10° SSW 18:36:23 10° S daylight
24 Sep - 15:39:10 10° SSW 15:42:21 13° S 15:45:30 10° SSE daylight
24 Sep - 17:31:38 10° SSW 17:34:29 12° S 17:37:16 10° SSE daylight
25 Sep - 14:39:02 10° S 14:41:37 12° SSE 14:44:12 10° SSE daylight
25 Sep - 16:30:17 10° SSW 16:33:47 14° S 16:37:13 10° SSE daylight
26 Sep - 13:40:32 10° SSE 13:40:54 10° SSE 13:41:16 10° SSE daylight
26 Sep - 15:29:19 10° SSW 15:33:02 14° S 15:36:42 10° SSE daylight
26 Sep - 17:23:01 10° SSW 17:25:10 11° SSW 17:27:17 10° S daylight
27 Sep - 14:28:43 10° SSW 14:32:17 14° S 14:35:49 10° SE daylight
27 Sep - 16:21:08 10° SW 16:24:28 13° S 16:27:44 10° SSE daylight
28 Sep - 13:28:37 10° S 13:31:32 12° SSE 13:34:28 10° SE daylight
28 Sep - 15:19:53 10° SSW 15:23:44 14° S 15:27:31 10° SSE daylight
29 Sep - 12:29:42 10° S 12:30:48 10° SSE 12:31:55 10° SSE daylight
29 Sep - 14:19:00 10° SSW 14:22:58 15° S 14:26:53 10° SSE daylight
29 Sep - 16:12:29 10° SW 16:15:07 12° SSW 16:17:44 10° S daylight
30 Sep - 13:18:29 10° SSW 13:22:12 14° S 13:25:54 10° SE daylight
30 Sep - 15:10:48 10° SW 15:14:23 14° S 15:17:57 10° SSE daylight
01 Oct - 12:18:27 10° S 12:21:26 12° SSE 12:24:25 10° SE daylight
01 Oct - 14:09:39 10° SW 14:13:38 15° S 14:17:35 10° SSE daylight
